Home   Weather   Santorini   Past weeks
Flag for Greece

Past Weather in Santorini, Greece — Yesterday and Last 2 Weeks

Now
68 °F

Passing clouds.


Feels Like: 68 °F
Forecast: 72 / 69 °F
Wind: 21 mph from North

Location: Santorini Island

Current Time: Oct 22, 2019 at 5:08:54 am

Latest Report: Oct 22, 2019 at 3:50 am


Visibility: N/A

Pressure: 29.98 "Hg

Humidity: 83%

Dew Point: 63 °F

Location of SantoriniLocation

Past Weather in Santorini — Graph

°F

Santorini Temperature Yesterday

Maximum temperature yesterday: 75 °F (at 11:50 am)
Minimum temperature yesterday: 64 °F (at 2:20 am)
Average temperature yesterday: 70 °F

High & Low Weather Summary for the Past Weeks

 TemperatureHumidityPressure
High81 °F (Oct 11, 1:50 pm)100% (Oct 13, 3:50 am)30.18 "Hg (Oct 13, 3:50 am)
Low59 °F (Oct 17, 3:20 am)42% (Oct 11, 2:20 pm)29.74 "Hg (Oct 7, 3:20 pm)
Average70 °F78%30.05 "Hg
* Reported Oct 7 3:20 am — Oct 22 3:50 am, Santorini. Weather by CustomWeather, © 2019

Note: Actual official high and low records may vary slightly from our data, if they occured in-between our weather recording intervals... More about our weather records

Advertising

Santorini Weather History for the Previous 24 Hours

Scroll right to see more
 ConditionsComfort  
Time TempWeatherWind HumidityBarometerVisibility
3:50 am
Tue, Oct 22
68 °FPassing clouds.21 mph83%29.98 "HgN/A
2:50 am68 °FPassing clouds.21 mph83%30.01 "HgN/A
2:20 am68 °FPassing clouds.14 mph83%30.01 "HgN/A
1:50 am68 °FPassing clouds.14 mph83%30.01 "HgN/A
12:50 am68 °FPassing clouds.17 mph83%30.01 "HgN/A
12:20 am68 °FPassing clouds.24 mph83%30.01 "HgN/A
11:50 pm
Mon, Oct 21
68 °FPassing clouds.16 mph83%30.04 "HgN/A
11:20 pm68 °FPassing clouds.12 mph78%30.04 "HgN/A
10:50 pm68 °FPassing clouds.16 mph73%30.04 "HgN/A
10:20 pm70 °FPassing clouds.22 mph69%30.04 "HgN/A
9:50 pm68 °FPassing clouds.13 mph73%30.04 "HgN/A
9:20 pm70 °FClear.16 mph69%30.04 "Hg10 mi
8:50 pm70 °FClear.22 mph73%30.04 "Hg10 mi
8:20 pm70 °FClear.14 mph73%30.07 "Hg10 mi
7:50 pm70 °FClear.15 mph64%30.07 "Hg10 mi
7:20 pm70 °FClear.22 mph64%30.04 "Hg10 mi
6:50 pm70 °FClear.20 mph69%30.04 "Hg10 mi
6:20 pm72 °FSunny.18 mph65%30.04 "Hg10 mi
5:50 pm72 °FSunny.17 mph65%30.04 "Hg10 mi
5:20 pm73 °FSunny.22 mph61%30.04 "Hg10 mi
4:50 pm75 °FSunny.20 mph57%30.04 "Hg10 mi
4:20 pm75 °FSunny.17 mph61%30.04 "Hg10 mi
3:50 pm75 °FSunny.16 mph57%30.04 "Hg10 mi
3:20 pm75 °FSunny.15 mph61%30.07 "Hg10 mi
2:50 pm75 °FSunny.18 mph61%30.07 "Hg10 mi
2:20 pm75 °FSunny.16 mph65%30.07 "Hg10 mi
1:50 pm75 °FSunny.13 mph65%30.09 "Hg10 mi
1:20 pm75 °FSunny.15 mph65%30.09 "Hg10 mi
12:20 pm75 °FSunny.12 mph61%30.09 "Hg10 mi
11:50 am75 °FSunny.12 mph61%30.09 "Hg10 mi
11:20 am73 °FSunny.13 mph69%30.09 "Hg10 mi
10:50 am73 °FSunny.15 mph69%30.09 "Hg10 mi
10:20 am73 °FClear.8 mph65%30.09 "Hg6 mi
9:50 am72 °FPassing clouds.12 mph73%30.09 "Hg6 mi
9:20 am70 °FPassing clouds.13 mph83%30.09 "Hg5 mi
8:50 am70 °FPassing clouds.9 mph83%30.09 "Hg5 mi
8:20 am68 °FPassing clouds.14 mph88%30.07 "Hg5 mi
7:50 am68 °FPassing clouds.14 mph83%30.07 "Hg5 mi
7:20 am68 °FPassing clouds.13 mph88%30.07 "Hg5 mi
6:50 am66 °FPassing clouds.5 mph88%30.07 "Hg5 mi
6:20 am64 °FPassing clouds.7 mph88%30.07 "Hg5 mi
5:50 am64 °FPassing clouds.6 mph88%30.07 "Hg5 mi
5:20 am66 °FPassing clouds.5 mph88%30.07 "Hg5 mi
Weather by CustomWeather, © 2019

See weather overview